Wednesday, January 17, 2018, 7:13 PM EST
Back to Local

KSYR, Syracuse Hancock International Airport

Location: Syracuse, NY, United States Lat: 43.117
Local Time: 7:13 PM EST ( 0:13 GMT) Lon: -76.1
Time Zone: US/Eastern Elev: 410 ft

Show me the last for .
Show Decoded

2018-01-17 18:54 METAR KSYR 172354Z 24008KT 10SM FEW045 SCT240 M09/M14 A3025 RMK AO2 SLP250 4/010
                 T10941139 11072 21094 56010 =
2018-01-17 17:54 METAR KSYR 172254Z 24009KT 10SM SCT045 M09/M13 A3027 RMK AO2 SLP254 T10891133 =
2018-01-17 16:54 METAR KSYR 172154Z 23007KT 10SM FEW030 SCT045 M08/M13 A3027 RMK AO2 SLP253
                 T10781128 =
2018-01-17 15:54 METAR KSYR 172054Z 24007KT 10SM SCT050 SCT100 M08/M12 A3028 RMK AO2 SLP259
                 T10781122 56016 =
2018-01-17 14:54 METAR KSYR 171954Z 26008KT 10SM SCT025 BKN050 M07/M12 A3029 RMK AO2 SLP262
                 T10721117 =
2018-01-17 13:57 METAR KSYR 171857Z 24009KT 10SM BKN025 BKN050 M08/M12 A3031 =
2018-01-17 13:54 METAR KSYR 171854Z 25008KT 10SM SCT025 BKN050 M08/M12 A3031 RMK AO2 SLP269
                 T10781122 =
2018-01-17 12:54 METAR KSYR 171754Z 24008KT 10SM FEW027 OVC050 M08/M13 A3033 RMK AO2 SNE39 SLP275
                 4/010 933027 P0000 60001 T10831128 11078 21094 58020 =
2018-01-17 11:54 METAR KSYR 171654Z 22008KT 9SM -SN BKN050 OVC060 M08/M12 A3036 RMK AO2 SLP285
                 P0000 T10831122 =
2018-01-17 10:54 METAR KSYR 171554Z 26012KT 6SM -SN BKN050 BKN060 M09/M12 A3039 RMK AO2 SLP295
                 P0000 T10891122 =
2018-01-17 10:04 METAR KSYR 171504Z 25010KT 3SM -SN FEW017 SCT030 BKN034 M09/M12 A3039 RMK AO2
                 VIS 2 NW P0000 T10941122 =
2018-01-17 09:54 METAR KSYR 171454Z 25012KT 2 1/2SM -SN BR FEW017 BKN030 OVC036 M09/M12 A3039 RMK
                 AO2 VIS 1 1/2 NW SLP295 P0000 60001 T10941117 52001 =
2018-01-17 09:44 METAR KSYR 171444Z 25008KT 2SM -SN BR FEW017 BKN030 OVC036 M09/M11 A3039 =
2018-01-17 08:54 METAR KSYR 171354Z 26010KT 1 1/4SM R28/5500VP6000FT -SN BR BKN024 BKN031 OVC038
                 M09/M11 A3039 RMK AO2 SLP296 P0001 T10941111 =
2018-01-17 08:41 METAR KSYR 171341Z 25008KT 1 1/2SM -SN BR SCT026 OVC037 M09/M11 A3040 =
2018-01-17 07:54 METAR KSYR 171254Z 26010KT 2 1/2SM -SN BR SCT016 OVC034 M09/M11 A3039 RMK AO2
                 SLP293 P0000 T10891106 =
2018-01-17 07:22 METAR KSYR 171222Z 26009KT 5SM -SN BR OVC030 M09/M11 A3038 RMK AO2 P0000
                 T10891106 =
2018-01-17 06:54 METAR KSYR 171154Z 26010KT 5SM -SN BR FEW018 OVC025 M09/M11 A3039 RMK AO2 SLP294
                 4/009 P0000 60000 70008 T10891106 11044 21089 51014 =
2018-01-17 06:09 METAR KSYR 171109Z 26013KT 8SM -SN FEW015 OVC021 M08/M10 A3039 RMK AO2 P0000
                 T10831100 =
2018-01-17 05:54 METAR KSYR 171054Z 27009KT 8SM -SN OVC019 M08/M10 A3038 RMK AO2 SLP292 P0000
                 T10831100 =
2018-01-17 05:11 METAR KSYR 171011Z 27015KT 7SM -SN BKN015 OVC022 M08/M09 A3036 RMK AO2 P0000
                 T10781094 =
2018-01-17 04:54 METAR KSYR 170954Z 26013KT 6SM -SN BR BKN013 OVC020 M07/M08 A3036 RMK AO2 SLP284
                 P0000 T10721083 =
2018-01-17 04:44 METAR KSYR 170944Z 26013KT 6SM -SN BR BKN012 OVC020 M07/M08 A3036 RMK AO2 P0000
                 T10671078 =
2018-01-17 04:01 METAR KSYR 170901Z 29008KT 8SM -SN BKN008 OVC014 M06/M06 A3035 RMK AO2 P0000
                 T10561061 =
2018-01-17 03:54 METAR KSYR 170854Z 29013KT 8SM -SN SCT008 OVC016 M05/M06 A3035 RMK AO2 SLP280
                 P0000 60000 T10501061 51007 =
2018-01-17 03:48 METAR KSYR 170848Z 30011KT 7SM -SN SCT008 OVC016 M05/M05 A3035 =
2018-01-17 02:58 METAR KSYR 170758Z 00000KT 4SM -SN BR FEW016 BKN020 OVC041 M06/M06 A3034 =
2018-01-17 02:54 METAR KSYR 170754Z 00000KT 4SM -SN BR SCT026 BKN041 OVC075 M06/M06 A3033 RMK AO2
                 SLP274 P0000 T10561056 =
2018-01-17 01:54 METAR KSYR 170654Z 09004KT 4SM -SN BR FEW020 BKN033 OVC055 M06/M06 A3033 RMK AO2
                 SLP273 P0000 T10611061 =
2018-01-17 01:01 METAR KSYR 170601Z 00000KT 5SM -SN BR FEW019 BKN033 OVC080 M06/M06 A3033 RMK AO2
                 P0000 T10561056 =
2018-01-17 00:54 METAR KSYR 170554Z 00000KT 5SM -SN BR FEW021 BKN026 OVC100 M05/M05 A3033 RMK AO2
                 SLP275 4/009 P0000 60005 T10501050 11044 21056 58012 =
2018-01-17 00:08 METAR KSYR 170508Z 05003KT 3SM -SN BR BKN026 OVC110 M05/M05 A3034 RMK AO2 P0000
                 T10501050
2018-01-16 23:54 METAR KSYR 170454Z 00000KT 2 1/2SM -SN BR FEW007 OVC029 M06/M06 A3035 RMK AO2
                 SLP280 P0000 T10561056 410221089 =
2018-01-16 23:16 METAR KSYR 170416Z 00000KT 2 1/2SM -SN BR FEW006 OVC029 M05/M05 A3036 RMK AO2
                 P0000 T10501050 =
2018-01-16 22:54 METAR KSYR 170354Z 00000KT 2 1/2SM -SN BR OVC038 M04/M04 A3036 RMK AO2 SLP285
                 P0001 T10441044 =
2018-01-16 22:44 METAR KSYR 170344Z 10003KT 2 1/2SM -SN BR OVC040 M05/M05 A3036 RMK AO2 P0001
                 T10501050 =
2018-01-16 21:54 METAR KSYR 170254Z 07004KT 2 1/2SM -SN BR OVC022 M04/M04 A3037 RMK AO2 SLP288
                 P0001 60004 T10441044 58005 =
2018-01-16 21:35 METAR KSYR 170235Z 09003KT 2SM -SN BR FEW008 OVC022 M04/M04 A3037 RMK AO2 P0001
                 T10441044 =
2018-01-16 21:16 METAR KSYR 170216Z 09004KT 1 1/2SM -SN BR FEW008 OVC022 M04/M04 A3038 =
2018-01-16 20:54 METAR KSYR 170154Z 00000KT 1 3/4SM -SN BR OVC024 M04/M04 A3038 RMK AO2 SLP293
                 P0002 T10441044 =
2018-01-16 19:58 METAR KSYR 170058Z 00000KT 1 3/4SM -SN BR OVC024 M04/M04 A3039 =
2018-01-16 19:54 METAR KSYR 170054Z 00000KT 2SM -SN BR OVC030 M04/M04 A3038 RMK AO2 SLP293 P0001
                 T10441044 =

Support USWX by starting your Amazon purchase here.